FLX725 SBVC-SBZM

Flight info

Callsign FLX725
Flight time 1h 12m
Altitude 40000
Route MOTBO DCT ARUBI DCT UTPOV DCT UGULO
Aircraft E190/M-SDE3GILORVW/S

Departure

Time 2026-05-08 22:29
Airport Glauber de Andrade Rocha Airport (SBVC)

Arrival

Time 2026-05-08 23:42
Airport Presidente Itamar Franco Airport (SBZM)
Time Latitude Longitude Altitude Speed Heading
2026-05-08 22:07 -14.90919 -40.91772 2930 ft 0 kts 217°
2026-05-08 22:20 -14.90909 -40.91765 2930 ft 2 kts 218°
2026-05-08 22:21 -14.90900 -40.91753 2930 ft 2 kts 245°
2026-05-08 22:21 -14.90895 -40.91738 2930 ft 2 kts 266°
2026-05-08 22:21 -14.90897 -40.91722 2929 ft 2 kts 287°
2026-05-08 22:21 -14.90901 -40.91711 2929 ft 0 kts 303°
2026-05-08 22:22 -14.90906 -40.91705 2929 ft 0 kts 307°
2026-05-08 22:25 -14.90903 -40.91708 2930 ft 1 kts 307°
2026-05-08 22:25 -14.90888 -40.91723 2930 ft 4 kts 328°
2026-05-08 22:26 -14.90854 -40.91720 2929 ft 6 kts 27°
2026-05-08 22:26 -14.90808 -40.91688 2927 ft 9 kts 37°
2026-05-08 22:26 -14.90747 -40.91640 2925 ft 12 kts 37°
2026-05-08 22:26 -14.90667 -40.91647 2924 ft 13 kts 311°
2026-05-08 22:27 -14.90608 -40.91729 2924 ft 14 kts 307°
2026-05-08 22:27 -14.90544 -40.91816 2925 ft 15 kts 306°
2026-05-08 22:27 -14.90482 -40.91907 2926 ft 15 kts 306°
2026-05-08 22:27 -14.90417 -40.91997 2927 ft 15 kts 306°
2026-05-08 22:28 -14.90350 -40.92091 2928 ft 16 kts 307°
2026-05-08 22:28 -14.90286 -40.92182 2928 ft 10 kts 305°
2026-05-08 22:28 -14.90274 -40.92247 2929 ft 7 kts 269°
2026-05-08 22:28 -14.90247 -40.92249 2929 ft 6 kts 81°
2026-05-08 22:29 -14.90264 -40.92213 2929 ft 6 kts 126°
2026-05-08 22:29 -14.90428 -40.91983 2927 ft 84 kts 126°
2026-05-08 22:29 -14.90936 -40.91281 3029 ft 145 kts 126°
2026-05-08 22:29 -14.91576 -40.90458 3702 ft 157 kts 130°
2026-05-08 22:30 -14.92662 -40.89973 4010 ft 192 kts 172°
2026-05-08 22:30 -14.94059 -40.90277 4417 ft 215 kts 193°
2026-05-08 22:30 -14.95588 -40.90776 4828 ft 240 kts 194°
2026-05-08 22:30 -14.97208 -40.91336 5568 ft 252 kts 195°
2026-05-08 22:31 -14.98846 -40.91918 6656 ft 249 kts 195°
2026-05-08 22:31 -15.00434 -40.92488 7761 ft 243 kts 196°
2026-05-08 22:31 -15.02016 -40.93059 8764 ft 241 kts 197°
2026-05-08 22:31 -15.03594 -40.93630 9646 ft 244 kts 197°
2026-05-08 22:32 -15.05202 -40.94214 10473 ft 249 kts 197°
2026-05-08 22:32 -15.06844 -40.94810 11282 ft 255 kts 197°
2026-05-08 22:32 -15.08518 -40.95419 12104 ft 261 kts 197°
2026-05-08 22:32 -15.10251 -40.96049 12961 ft 265 kts 198°
2026-05-08 22:33 -15.11972 -40.96675 13807 ft 268 kts 198°
2026-05-08 22:33 -15.13739 -40.97318 14680 ft 270 kts 198°
2026-05-08 22:33 -15.15495 -40.97958 15529 ft 270 kts 197°
2026-05-08 22:33 -15.17275 -40.98605 16337 ft 272 kts 197°
2026-05-08 22:34 -15.19042 -40.99249 17121 ft 273 kts 197°
2026-05-08 22:34 -15.20836 -40.99902 17898 ft 273 kts 197°
2026-05-08 22:34 -15.22624 -41.00553 18640 ft 275 kts 197°
2026-05-08 22:34 -15.24421 -41.01207 19392 ft 275 kts 197°
2026-05-08 22:35 -15.26216 -41.01860 20113 ft 275 kts 197°
2026-05-08 22:35 -15.28011 -41.02515 20806 ft 276 kts 197°
2026-05-08 22:35 -15.29834 -41.03179 21475 ft 278 kts 197°
2026-05-08 22:35 -15.31662 -41.03845 22119 ft 279 kts 197°
2026-05-08 22:36 -15.33502 -41.04516 22762 ft 281 kts 197°
2026-05-08 22:36 -15.35353 -41.05190 23382 ft 283 kts 197°
2026-05-08 22:36 -15.37218 -41.05870 23974 ft 286 kts 198°
2026-05-08 22:36 -15.39097 -41.06556 24569 ft 288 kts 198°
2026-05-08 22:37 -15.40990 -41.07246 25181 ft 290 kts 198°
2026-05-08 22:37 -15.42888 -41.07939 25772 ft 292 kts 198°
2026-05-08 22:37 -15.44831 -41.08648 26328 ft 295 kts 199°
2026-05-08 22:37 -15.46764 -41.09354 26884 ft 297 kts 199°
2026-05-08 22:38 -15.48711 -41.10065 27413 ft 299 kts 199°
2026-05-08 22:38 -15.50685 -41.10786 27964 ft 301 kts 199°
2026-05-08 22:38 -15.52656 -41.11505 28482 ft 303 kts 199°
2026-05-08 22:38 -15.54653 -41.12235 28991 ft 305 kts 199°
2026-05-08 22:39 -15.56678 -41.12975 29469 ft 308 kts 199°
2026-05-08 22:39 -15.58693 -41.13712 29944 ft 310 kts 199°
2026-05-08 22:39 -15.60742 -41.14461 30421 ft 312 kts 200°
2026-05-08 22:39 -15.62779 -41.15205 30878 ft 314 kts 200°
2026-05-08 22:40 -15.64856 -41.15965 31341 ft 316 kts 200°
2026-05-08 22:40 -15.66935 -41.16692 31759 ft 318 kts 194°
2026-05-08 22:40 -15.69129 -41.17157 32179 ft 321 kts 192°
2026-05-08 22:40 -15.71336 -41.17594 32605 ft 323 kts 192°
2026-05-08 22:41 -15.73577 -41.18041 33037 ft 325 kts 192°
2026-05-08 22:41 -15.75803 -41.18485 33484 ft 327 kts 192°
2026-05-08 22:41 -15.78078 -41.18939 33959 ft 328 kts 192°
2026-05-08 22:41 -15.80356 -41.19394 34427 ft 330 kts 192°
2026-05-08 22:42 -15.82638 -41.19850 34911 ft 330 kts 192°
2026-05-08 22:42 -15.84933 -41.20309 35376 ft 331 kts 192°
2026-05-08 22:42 -15.87243 -41.20771 35869 ft 331 kts 192°
2026-05-08 22:42 -15.89521 -41.21227 36295 ft 333 kts 193°
2026-05-08 22:43 -15.91844 -41.21692 36712 ft 334 kts 193°
2026-05-08 22:43 -15.94178 -41.22158 37090 ft 337 kts 193°
2026-05-08 22:43 -15.96476 -41.22619 37459 ft 339 kts 193°
2026-05-08 22:43 -15.98804 -41.23085 37819 ft 341 kts 193°
2026-05-08 22:44 -16.01147 -41.23554 38171 ft 343 kts 193°
2026-05-08 22:44 -16.03517 -41.24028 38503 ft 345 kts 193°
2026-05-08 22:44 -16.05854 -41.24497 38861 ft 347 kts 193°
2026-05-08 22:44 -16.08259 -41.24978 39189 ft 349 kts 193°
2026-05-08 22:45 -16.10649 -41.25458 39444 ft 354 kts 193°
2026-05-08 22:45 -16.15617 -41.26454 39491 ft 373 kts 193°
2026-05-08 22:46 -16.20856 -41.27506 39568 ft 391 kts 193°
2026-05-08 22:46 -16.26334 -41.28605 39915 ft 404 kts 193°
2026-05-08 22:46 -16.29072 -41.29154 40109 ft 399 kts 194°
2026-05-08 22:47 -16.31830 -41.29709 40125 ft 408 kts 193°
2026-05-08 22:47 -16.37537 -41.30856 40119 ft 424 kts 193°
2026-05-08 22:48 -16.43391 -41.32032 40100 ft 428 kts 193°
2026-05-08 22:48 -16.49227 -41.33207 40089 ft 427 kts 193°
2026-05-08 22:49 -16.55092 -41.34387 40090 ft 427 kts 193°
2026-05-08 22:49 -16.63859 -41.36154 40103 ft 428 kts 193°
2026-05-08 22:50 -16.69714 -41.37334 40104 ft 428 kts 193°
2026-05-08 22:50 -16.75577 -41.38517 40111 ft 428 kts 193°
2026-05-08 22:51 -16.81445 -41.39702 40110 ft 428 kts 193°
2026-05-08 22:51 -16.87291 -41.40883 40109 ft 428 kts 193°
2026-05-08 22:52 -16.93129 -41.42063 40111 ft 428 kts 193°
2026-05-08 22:52 -16.98990 -41.43249 40114 ft 428 kts 193°
2026-05-08 22:53 -17.04847 -41.44434 40116 ft 427 kts 193°
2026-05-08 22:53 -17.10709 -41.45622 40122 ft 429 kts 194°
2026-05-08 22:54 -17.16546 -41.46817 40122 ft 428 kts 196°
2026-05-08 22:54 -17.22286 -41.48554 40120 ft 427 kts 198°
2026-05-08 22:55 -17.28004 -41.50261 40116 ft 427 kts 198°
2026-05-08 22:55 -17.33721 -41.51960 40112 ft 428 kts 198°
2026-05-08 22:56 -17.39440 -41.53661 40105 ft 428 kts 198°
2026-05-08 22:56 -17.45179 -41.55368 40102 ft 428 kts 198°
2026-05-08 22:57 -17.50951 -41.57086 40096 ft 428 kts 198°
2026-05-08 22:57 -17.56666 -41.58788 40101 ft 428 kts 198°
2026-05-08 22:58 -17.62402 -41.60498 40106 ft 428 kts 198°
2026-05-08 22:58 -17.68115 -41.62202 40110 ft 428 kts 198°
2026-05-08 22:59 -17.73859 -41.63916 40112 ft 428 kts 198°
2026-05-08 22:59 -17.79588 -41.65627 40120 ft 428 kts 198°
2026-05-08 23:00 -17.85359 -41.67352 40116 ft 430 kts 198°
2026-05-08 23:00 -17.91093 -41.69067 40114 ft 429 kts 199°
2026-05-08 23:01 -17.96859 -41.70792 40111 ft 429 kts 199°
2026-05-08 23:01 -18.02605 -41.72514 40107 ft 430 kts 199°
2026-05-08 23:02 -18.08347 -41.74234 40104 ft 428 kts 199°
2026-05-08 23:02 -18.14096 -41.75958 40104 ft 428 kts 199°
2026-05-08 23:03 -18.19845 -41.77684 40098 ft 429 kts 199°
2026-05-08 23:03 -18.25610 -41.79415 40093 ft 428 kts 199°
2026-05-08 23:04 -18.31345 -41.81138 40094 ft 430 kts 199°
2026-05-08 23:04 -18.37113 -41.82872 40094 ft 430 kts 199°
2026-05-08 23:05 -18.42843 -41.84597 40099 ft 430 kts 199°
2026-05-08 23:05 -18.48630 -41.86339 40101 ft 429 kts 199°
2026-05-08 23:06 -18.54353 -41.88064 40101 ft 429 kts 199°
2026-05-08 23:06 -18.60102 -41.89797 40096 ft 430 kts 199°
2026-05-08 23:07 -18.65863 -41.91536 40098 ft 430 kts 199°
2026-05-08 23:07 -18.71653 -41.93285 40095 ft 431 kts 199°
2026-05-08 23:08 -18.77408 -41.95023 40091 ft 431 kts 199°
2026-05-08 23:08 -18.83175 -41.96767 40091 ft 431 kts 199°
2026-05-08 23:09 -18.88922 -41.98510 40090 ft 428 kts 200°
2026-05-08 23:09 -18.94381 -42.00973 40093 ft 426 kts 207°
2026-05-08 23:10 -18.99779 -42.03592 40089 ft 427 kts 207°
2026-05-08 23:10 -19.05177 -42.06211 40095 ft 427 kts 207°
2026-05-08 23:11 -19.10580 -42.08834 40098 ft 427 kts 207°
2026-05-08 23:11 -19.15982 -42.11459 40109 ft 426 kts 207°
2026-05-08 23:12 -19.21400 -42.14093 40109 ft 427 kts 207°
2026-05-08 23:12 -19.26785 -42.16713 40109 ft 428 kts 207°
2026-05-08 23:13 -19.32198 -42.19349 40122 ft 427 kts 207°
2026-05-08 23:13 -19.37600 -42.21981 40127 ft 427 kts 207°
2026-05-08 23:14 -19.43019 -42.24624 40139 ft 427 kts 207°
2026-05-08 23:14 -19.48396 -42.27248 40147 ft 426 kts 207°
2026-05-08 23:15 -19.53782 -42.29878 40140 ft 425 kts 207°
2026-05-08 23:15 -19.59090 -42.32471 40132 ft 408 kts 207°
2026-05-08 23:16 -19.64211 -42.34977 40140 ft 408 kts 207°
2026-05-08 23:16 -19.69382 -42.37507 40133 ft 410 kts 207°
2026-05-08 23:17 -19.74591 -42.40059 39313 ft 422 kts 207°
2026-05-08 23:17 -19.77255 -42.41365 37963 ft 426 kts 206°
2026-05-08 23:17 -19.79928 -42.42674 37522 ft 412 kts 206°
2026-05-08 23:18 -19.82475 -42.43923 37064 ft 402 kts 206°
2026-05-08 23:18 -19.85037 -42.45180 36624 ft 405 kts 206°
2026-05-08 23:18 -19.87606 -42.46441 36177 ft 412 kts 206°
2026-05-08 23:18 -19.90202 -42.47716 35716 ft 415 kts 206°
2026-05-08 23:19 -19.92850 -42.49016 35246 ft 417 kts 206°
2026-05-08 23:19 -19.95495 -42.50315 34785 ft 419 kts 206°
2026-05-08 23:19 -19.98165 -42.51627 34318 ft 421 kts 206°
2026-05-08 23:19 -20.00795 -42.52929 33851 ft 422 kts 208°
2026-05-08 23:20 -20.03392 -42.54456 33393 ft 425 kts 210°
2026-05-08 23:20 -20.05996 -42.55992 32935 ft 426 kts 210°
2026-05-08 23:20 -20.08570 -42.57501 32473 ft 429 kts 210°
2026-05-08 23:20 -20.11209 -42.59044 31998 ft 430 kts 210°
2026-05-08 23:21 -20.13825 -42.60574 31523 ft 431 kts 210°
2026-05-08 23:21 -20.16486 -42.62130 31042 ft 434 kts 210°
2026-05-08 23:21 -20.19097 -42.63658 30569 ft 433 kts 210°
2026-05-08 23:21 -20.21749 -42.65211 30089 ft 431 kts 211°
2026-05-08 23:22 -20.24380 -42.66751 29620 ft 427 kts 211°
2026-05-08 23:22 -20.26946 -42.68254 29151 ft 424 kts 211°
2026-05-08 23:22 -20.29530 -42.69769 28680 ft 422 kts 211°
2026-05-08 23:22 -20.32105 -42.71279 28211 ft 421 kts 211°
2026-05-08 23:23 -20.34678 -42.72788 27740 ft 419 kts 211°
2026-05-08 23:23 -20.37210 -42.74274 27284 ft 418 kts 211°
2026-05-08 23:23 -20.39770 -42.75776 26817 ft 416 kts 211°
2026-05-08 23:23 -20.42292 -42.77257 26357 ft 415 kts 211°
2026-05-08 23:24 -20.44828 -42.78746 25894 ft 413 kts 211°
2026-05-08 23:24 -20.47337 -42.80221 25438 ft 412 kts 211°
2026-05-08 23:24 -20.49818 -42.81680 24986 ft 411 kts 211°
2026-05-08 23:24 -20.52336 -42.83160 24536 ft 410 kts 211°
2026-05-08 23:25 -20.54826 -42.84625 24085 ft 408 kts 211°
2026-05-08 23:25 -20.57316 -42.86091 23639 ft 408 kts 210°
2026-05-08 23:25 -20.59790 -42.87547 23191 ft 406 kts 210°
2026-05-08 23:25 -20.62273 -42.89009 22743 ft 405 kts 210°
2026-05-08 23:26 -20.64740 -42.90463 22306 ft 403 kts 210°
2026-05-08 23:26 -20.67169 -42.91894 21871 ft 401 kts 210°
2026-05-08 23:26 -20.69611 -42.93334 21429 ft 398 kts 210°
2026-05-08 23:26 -20.72038 -42.94765 20992 ft 396 kts 210°
2026-05-08 23:27 -20.74449 -42.96188 20559 ft 394 kts 210°
2026-05-08 23:27 -20.76842 -42.97600 20127 ft 392 kts 210°
2026-05-08 23:27 -20.79220 -42.99004 19690 ft 391 kts 210°
2026-05-08 23:27 -20.81598 -43.00409 19252 ft 389 kts 210°
2026-05-08 23:28 -20.83965 -43.01807 18816 ft 386 kts 210°
2026-05-08 23:28 -20.86289 -43.03181 18390 ft 384 kts 210°
2026-05-08 23:28 -20.88615 -43.04557 17963 ft 381 kts 210°
2026-05-08 23:28 -20.90925 -43.05923 17538 ft 379 kts 210°
2026-05-08 23:29 -20.93234 -43.07289 17117 ft 377 kts 210°
2026-05-08 23:29 -20.95531 -43.08649 16699 ft 377 kts 210°
2026-05-08 23:29 -20.97821 -43.10005 16283 ft 376 kts 210°
2026-05-08 23:29 -21.00113 -43.11362 15868 ft 375 kts 210°
2026-05-08 23:30 -21.02368 -43.12699 15455 ft 373 kts 210°
2026-05-08 23:30 -21.04656 -43.14055 15036 ft 372 kts 210°
2026-05-08 23:30 -21.06923 -43.15400 14622 ft 371 kts 210°
2026-05-08 23:30 -21.09160 -43.16726 14217 ft 370 kts 210°
2026-05-08 23:31 -21.11421 -43.18068 13799 ft 369 kts 210°
2026-05-08 23:31 -21.13666 -43.19400 13387 ft 367 kts 211°
2026-05-08 23:31 -21.15898 -43.20726 12984 ft 364 kts 210°
2026-05-08 23:31 -21.18103 -43.22036 12579 ft 361 kts 210°
2026-05-08 23:32 -21.20290 -43.23335 12181 ft 359 kts 211°
2026-05-08 23:32 -21.22458 -43.24624 11785 ft 355 kts 211°
2026-05-08 23:32 -21.24619 -43.25909 11388 ft 346 kts 210°
2026-05-08 23:32 -21.26698 -43.27145 11007 ft 337 kts 211°
2026-05-08 23:33 -21.28706 -43.28340 10640 ft 327 kts 211°
2026-05-08 23:33 -21.30661 -43.29503 10284 ft 318 kts 211°
2026-05-08 23:33 -21.32587 -43.30650 9933 ft 310 kts 211°
2026-05-08 23:33 -21.34454 -43.31762 9600 ft 307 kts 211°
2026-05-08 23:34 -21.36329 -43.32879 9265 ft 305 kts 211°
2026-05-08 23:34 -21.38180 -43.33982 8935 ft 304 kts 211°
2026-05-08 23:34 -21.40028 -43.35084 8603 ft 303 kts 211°
2026-05-08 23:34 -21.41867 -43.36181 8269 ft 301 kts 211°
2026-05-08 23:35 -21.43688 -43.37267 7937 ft 299 kts 211°
2026-05-08 23:35 -21.45512 -43.38355 7605 ft 297 kts 211°
2026-05-08 23:35 -21.47321 -43.39435 7279 ft 296 kts 211°
2026-05-08 23:35 -21.49103 -43.40498 6953 ft 295 kts 211°
2026-05-08 23:36 -21.50999 -43.41341 6619 ft 296 kts 188°
2026-05-08 23:36 -21.53020 -43.41083 6325 ft 295 kts 155°
2026-05-08 23:36 -21.54737 -43.39895 6006 ft 292 kts 141°
2026-05-08 23:36 -21.56357 -43.38598 5659 ft 290 kts 141°
2026-05-08 23:37 -21.57949 -43.37322 5331 ft 282 kts 141°
2026-05-08 23:37 -21.59481 -43.36058 4922 ft 276 kts 133°
2026-05-08 23:37 -21.60390 -43.34318 4608 ft 258 kts 95°
2026-05-08 23:37 -21.60176 -43.32534 4360 ft 233 kts 57°
2026-05-08 23:38 -21.59318 -43.31147 4095 ft 220 kts 56°
2026-05-08 23:38 -21.58613 -43.29712 3790 ft 211 kts 61°
2026-05-08 23:38 -21.58058 -43.28316 3620 ft 196 kts 65°
2026-05-08 23:38 -21.57597 -43.26994 3454 ft 180 kts 66°
2026-05-08 23:39 -21.57213 -43.25806 3138 ft 161 kts 66°
2026-05-08 23:39 -21.56664 -43.24865 2862 ft 140 kts 48°
2026-05-08 23:39 -21.56105 -43.24089 2648 ft 124 kts 49°
2026-05-08 23:39 -21.55588 -43.23368 2467 ft 120 kts 50°
2026-05-08 23:40 -21.55075 -43.22647 2316 ft 122 kts 50°
2026-05-08 23:40 -21.54559 -43.21919 2186 ft 124 kts 50°
2026-05-08 23:40 -21.54036 -43.21178 2013 ft 122 kts 51°
2026-05-08 23:40 -21.53532 -43.20464 1829 ft 118 kts 50°
2026-05-08 23:41 -21.53021 -43.19745 1710 ft 123 kts 52°
2026-05-08 23:41 -21.52497 -43.19013 1572 ft 126 kts 52°
2026-05-08 23:41 -21.51976 -43.18245 1389 ft 124 kts 53°
2026-05-08 23:41 -21.51544 -43.17623 1379 ft 60 kts 55°
2026-05-08 23:42 -21.51390 -43.17402 1382 ft 30 kts 54°
2026-05-08 23:42 -21.51269 -43.17231 1379 ft 26 kts 52°
2026-05-08 23:42 -21.51200 -43.17076 1376 ft 21 kts 83°
2026-05-08 23:42 -21.51210 -43.16948 1380 ft 13 kts 98°
2026-05-08 23:43 -21.51220 -43.16869 1383 ft 10 kts 98°
2026-05-08 23:43 -21.51227 -43.16786 1385 ft 12 kts 73°
2026-05-08 23:43 -21.51158 -43.16681 1376 ft 21 kts 54°
2026-05-08 23:43 -21.51058 -43.16538 1369 ft 25 kts 53°
2026-05-08 23:44 -21.50994 -43.16446 1365 ft 11 kts 55°
2026-05-08 23:44 -21.51019 -43.16398 1368 ft 6 kts 148°
2026-05-08 23:44 -21.51036 -43.16385 1369 ft 0 kts 144°
2026-05-08 23:44 -21.51039 -43.16383 1370 ft 1 kts 145°
2026-05-08 23:45 -21.51039 -43.16382 1370 ft 0 kts 145°